Location: Metacom Observatory
(41.7315°N, 71.2698°W)
Time: 01:46:48
(UTC-04:00)

Hubble Space Telescope - Visible Passes

Search period start: 26 April 2018 00:00
Search period end: 06 May 2018 00:00
Orbit: 537 x 541 km, 28.5° (Epoch: 25 April)

Date Brightness Start Highest point End Pass type
(mag) Time Alt. Az. Time Alt. Az. Time Alt. Az.
27 Apr 3.0 21:10:36 10° SSW 21:11:13 11° S 21:11:13 11° S visible
28 Apr 2.9 20:59:55 10° SSW 21:01:41 12° S 21:01:43 12° S visible
29 Apr 2.8 20:49:21 10° SSW 20:51:14 13° S 20:52:07 12° SSE visible
30 Apr 2.9 20:38:52 10° SSW 20:40:46 13° S 20:42:26 11° SSE visible
01 May 2.9 20:28:29 10° SSW 20:30:19 13° S 20:32:10 10° SSE visible
02 May 3.0 20:18:11 10° SSW 20:19:51 12° S 20:21:32 10° SSE visible
